| time (UTC) | temp F | wind direction | speed MPH | gust MPH | rain 1hr in | rain 24hr in | rain mn in | humidity % | barometer mb |
| 20260508130147 | 55 | 163 | 5.0 | 6.0 | 0.00 | 0.00 | 0.00 | 79 | 1014.3 |
| 20260508125643 | 55 | 203 | 3.0 | 7.0 | 0.00 | 0.00 | 0.00 | 79 | 1014.2 |
| 20260508125140 | 55 | 251 | 5.0 | 8.0 | 0.00 | 0.00 | 0.00 | 79 | 1014.3 |
| 20260508124638 | 55 | 155 | 4.0 | 7.0 | 0.00 | 0.00 | 0.00 | 79 | 1014.2 |
| 20260508124135 | 54 | 165 | 1.0 | 3.0 | 0.00 | 0.00 | 0.00 | 80 | 1014.2 |
| 20260508123633 | 54 | 170 | 1.0 | 7.0 | 0.00 | 0.00 | 0.00 | 80 | 1014.1 |
| 20260508123130 | 54 | 160 | 2.0 | 6.0 | 0.00 | 0.00 | 0.00 | 80 | 1013.8 |
| 20260508122626 | 54 | 167 | 2.0 | 6.0 | 0.00 | 0.00 | 0.00 | 80 | 1014.0 |
| 20260508122123 | 53 | 167 | 4.0 | 6.0 | 0.00 | 0.00 | 0.00 | 81 | 1014.0 |
| 20260508121622 | 53 | 156 | 4.0 | 6.0 | 0.00 | 0.00 | 0.00 | 81 | 1014.0 |
| 20260508121119 | 53 | 192 | 3.0 | 6.0 | 0.00 | 0.00 | 0.00 | 82 | 1013.8 |
| 20260508120617 | 52 | 174 | 0.0 | 5.0 | 0.00 | 0.00 | 0.00 | 83 | 1013.9 |
| 20260508120115 | 51 | 190 | 2.0 | 5.0 | 0.00 | 0.00 | 0.00 | 84 | 1014.0 |
| 20260508115612 | 51 | 190 | 2.0 | 5.0 | 0.00 | 0.00 | 0.00 | 85 | 1013.8 |
| 20260508115108 | 50 | 170 | 0.0 | 3.0 | 0.00 | 0.00 | 0.00 | 86 | 1013.7 |
| 20260508114606 | 50 | 181 | 0.0 | 1.0 | 0.00 | 0.00 | 0.00 | 86 | 1013.9 |
| 20260508114101 | 50 | 189 | 1.0 | 2.0 | 0.00 | 0.00 | 0.00 | 87 | 1013.6 |
| 20260508113559 | 50 | 161 | 1.0 | 3.0 | 0.00 | 0.00 | 0.00 | 87 | 1013.6 |
| 20260508113057 | 49 | 189 | 1.0 | 3.0 | 0.00 | 0.00 | 0.00 | 87 | 1013.5 |
| 20260508112553 | 49 | 196 | 1.0 | 2.0 | 0.00 | 0.00 | 0.00 | 88 | 1013.6 |
| 20260508112050 | 49 | 184 | 0.0 | 1.0 | 0.00 | 0.00 | 0.00 | 88 | 1013.6 |
| 20260508111547 | 48 | 176 | 0.0 | 1.0 | 0.00 | 0.00 | 0.00 | 89 | 1013.5 |
| 20260508111044 | 48 | 177 | 0.0 | 1.0 | 0.00 | 0.00 | 0.00 | 89 | 1013.7 |
| 20260508110542 | 48 | 181 | 0.0 | 0.0 | 0.00 | 0.00 | 0.00 | 89 | 1013.5 |
| 20260508110038 | 48 | 178 | 0.0 | 1.0 | 0.00 | 0.00 | 0.00 | 90 | 1013.5 |
| 20260508105533 | 48 | 173 | 0.0 | 1.0 | 0.00 | 0.00 | 0.00 | 90 | 1013.3 |
| 20260508105031 | 48 | 153 | 0.0 | 2.0 | 0.00 | 0.00 | 0.00 | 90 | 1013.2 |
| 20260508104528 | 48 | 169 | 0.0 | 0.0 | 0.00 | 0.00 | 0.00 | 90 | 1013.5 |
| 20260508104024 | 48 | 185 | 0.0 | 2.0 | 0.00 | 0.00 | 0.00 | 91 | 1013.5 |
| 20260508103521 | 48 | 165 | 0.0 | 2.0 | 0.00 | 0.00 | 0.00 | 91 | 1013.5 |
| 20260508103019 | 47 | 181 | 0.0 | 0.0 | 0.00 | 0.00 | 0.00 | 92 | 1013.4 |
| 20260508102516 | 47 | 180 | 0.0 | 0.0 | 0.00 | 0.00 | 0.00 | 93 | 1013.7 |
| 20260508102014 | 46 | 184 | 0.0 | 2.0 | 0.00 | 0.00 | 0.00 | 94 | 1013.4 |
| 20260508101511 | 46 | 178 | 0.0 | 0.0 | 0.00 | 0.00 | 0.00 | 94 | 1013.7 |
| 20260508101008 | 46 | 177 | 0.0 | 0.0 | 0.00 | 0.00 | 0.00 | 94 | 1013.7 |
| 20260508100507 | 46 | 170 | 0.0 | 0.0 | 0.00 | 0.00 | 0.00 | 94 | 1013.5 |
| 20260508100003 | 46 | 170 | 0.0 | 0.0 | 0.00 | 0.00 | 0.00 | 93 | 1013.5 |
| 20260508095500 | 46 | 170 | 0.0 | 0.0 | 0.00 | 0.00 | 0.00 | 93 | 1013.7 |
| 20260508094957 | 46 | 170 | 0.0 | 0.0 | 0.00 | 0.00 | 0.00 | 92 | 1013.6 |
| 20260508094454 | 47 | 170 | 0.0 | 0.0 | 0.00 | 0.00 | 0.00 | 92 | 1013.6 |
| 20260508093950 | 47 | 170 | 0.0 | 0.0 | 0.00 | 0.00 | 0.00 | 92 | 1013.5 |
| 20260508093448 | 47 | 172 | 0.0 | 0.0 | 0.00 | 0.00 | 0.00 | 92 | 1013.5 |
| 20260508092945 | 48 | 173 | 0.0 | 0.0 | 0.00 | 0.00 | 0.00 | 91 | 1013.5 |
| 20260508092443 | 48 | 173 | 0.0 | 0.0 | 0.00 | 0.00 | 0.00 | 90 | 1013.4 |
| 20260508091942 | 48 | 177 | 0.0 | 0.0 | 0.00 | 0.00 | 0.00 | 90 | 1013.3 |
| 20260508091438 | 48 | 177 | 0.0 | 0.0 | 0.00 | 0.00 | 0.00 | 90 | 1013.4 |
| 20260508090935 | 48 | 177 | 0.0 | 0.0 | 0.00 | 0.00 | 0.00 | 90 | 1013.6 |
| 20260508090434 | 48 | 175 | 0.0 | 1.0 | 0.00 | 0.00 | 0.00 | 90 | 1013.5 |
| 20260508085929 | 48 | 176 | 1.0 | 1.0 | 0.00 | 0.00 | 0.00 | 90 | 1013.5 |
| 20260508085426 | 48 | 167 | 0.0 | 0.0 | 0.00 | 0.00 | 0.00 | 89 | 1013.6 |
| 20260508084923 | 48 | 174 | 0.0 | 1.0 | 0.00 | 0.00 | 0.00 | 89 | 1013.5 |
| 20260508084419 | 48 | 167 | 0.0 | 2.0 | 0.00 | 0.00 | 0.00 | 89 | 1013.4 |
| 20260508083917 | 48 | 172 | 0.0 | 0.0 | 0.00 | 0.00 | 0.00 | 89 | 1013.6 |
| 20260508083415 | 48 | 177 | 0.0 | 1.0 | 0.00 | 0.00 | 0.00 | 89 | 1013.6 |
| 20260508082909 | 48 | 170 | 0.0 | 1.0 | 0.00 | 0.00 | 0.00 | 89 | 1013.5 |
| 20260508082406 | 48 | 174 | 0.0 | 0.0 | 0.00 | 0.00 | 0.00 | 89 | 1013.8 |
| 20260508081904 | 49 | 180 | 0.0 | 0.0 | 0.00 | 0.00 | 0.00 | 89 | 1013.6 |
| 20260508081401 | 49 | 172 | 0.0 | 1.0 | 0.00 | 0.00 | 0.00 | 89 | 1013.9 |
| 20260508080857 | 49 | 171 | 0.0 | 1.0 | 0.00 | 0.00 | 0.00 | 89 | 1013.9 |
| 20260508080356 | 49 | 184 | 0.0 | 1.0 | 0.00 | 0.00 | 0.00 | 89 | 1013.8 |
| 20260508075852 | 49 | 178 | 0.0 | 1.0 | 0.00 | 0.00 | 0.00 | 89 | 1013.9 |
| 20260508075349 | 48 | 163 | 0.0 | 1.0 | 0.00 | 0.00 | 0.00 | 90 | 1013.8 |
| 20260508074847 | 48 | 176 | 0.0 | 1.0 | 0.00 | 0.00 | 0.00 | 90 | 1013.9 |
| 20260508074343 | 48 | 180 | 1.0 | 1.0 | 0.00 | 0.00 | 0.00 | 90 | 1013.8 |
| 20260508073840 | 48 | 167 | 0.0 | 1.0 | 0.00 | 0.00 | 0.00 | 90 | 1014.0 |
| 20260508073338 | 48 | 167 | 0.0 | 0.0 | 0.00 | 0.00 | 0.00 | 90 | 1013.9 |
| 20260508072834 | 48 | 173 | 0.0 | 0.0 | 0.00 | 0.00 | 0.00 | 91 | 1014.3 |
| 20260508072330 | 47 | 178 | 0.0 | 0.0 | 0.00 | 0.00 | 0.00 | 91 | 1014.2 |
| 20260508071828 | 47 | 175 | 0.0 | 0.0 | 0.00 | 0.00 | 0.00 | 92 | 1014.3 |
| 20260508071326 | 47 | 175 | 0.0 | 0.0 | 0.00 | 0.00 | 0.00 | 92 | 1014.4 |
| 20260508070823 | 47 | 182 | 0.0 | 1.0 | 0.00 | 0.00 | 0.00 | 93 | 1014.3 |
| 20260508070321 | 47 | 179 | 0.0 | 0.0 | 0.00 | 0.00 | 0.00 | 94 | 1014.4 |
| 20260508065819 | 46 | 176 | 0.0 | 1.0 | 0.00 | 0.00 | 0.00 | 95 | 1014.6 |
| 20260508065316 | 45 | 172 | 0.0 | 0.0 | 0.00 | 0.00 | 0.00 | 96 | 1014.6 |
| 20260508064814 | 45 | 171 | 0.0 | 0.0 | 0.00 | 0.00 | 0.00 | 96 | 1014.6 |
| 20260508064312 | 44 | 170 | 0.0 | 0.0 | 0.00 | 0.00 | 0.00 | 96 | 1014.7 |
| 20260508063809 | 45 | 170 | 0.0 | 0.0 | 0.00 | 0.00 | 0.00 | 95 | 1014.8 |
| 20260508063307 | 45 | 170 | 0.0 | 0.0 | 0.00 | 0.00 | 0.00 | 95 | 1014.6 |
| 20260508062804 | 45 | 170 | 0.0 | 0.0 | 0.00 | 0.00 | 0.00 | 95 | 1014.9 |
| 20260508062305 | 45 | 171 | 0.0 | 0.0 | 0.00 | 0.00 | 0.00 | 95 | 1014.7 |
| 20260508061758 | 45 | 155 | 0.0 | 0.0 | 0.00 | 0.00 | 0.00 | 95 | 1014.9 |
| 20260508061255 | 45 | 155 | 0.0 | 0.0 | 0.00 | 0.00 | 0.00 | 95 | 1014.8 |
| 20260508060752 | 45 | 154 | 0.0 | 0.0 | 0.00 | 0.00 | 0.00 | 94 | 1014.6 |
| 20260508060250 | 45 | 155 | 0.0 | 0.0 | 0.00 | 0.00 | 0.00 | 94 | 1014.8 |
| 20260508055745 | 46 | 154 | 0.0 | 0.0 | 0.00 | 0.00 | 0.00 | 93 | 1014.7 |
| 20260508055242 | 46 | 154 | 0.0 | 0.0 | 0.00 | 0.00 | 0.00 | 93 | 1014.9 |
| 20260508054739 | 46 | 155 | 0.0 | 0.0 | 0.00 | 0.00 | 0.00 | 93 | 1015.0 |
| 20260508054237 | 46 | 155 | 0.0 | 0.0 | 0.00 | 0.00 | 0.00 | 93 | 1014.7 |
| 20260508053734 | 47 | 154 | 0.0 | 0.0 | 0.00 | 0.00 | 0.00 | 93 | 1014.8 |
| 20260508053226 | 47 | 154 | 0.0 | 0.0 | 0.00 | 0.00 | 0.00 | 93 | 1014.9 |
| 20260508052722 | 47 | 154 | 0.0 | 0.0 | 0.00 | 0.00 | 0.00 | 93 | 1014.8 |
| 20260508052219 | 47 | 154 | 0.0 | 0.0 | 0.00 | 0.00 | 0.00 | 93 | 1014.9 |
| 20260508051715 | 47 | 163 | 0.0 | 0.0 | 0.00 | 0.00 | 0.00 | 92 | 1015.2 |
| 20260508051211 | 47 | 163 | 0.0 | 0.0 | 0.00 | 0.00 | 0.00 | 92 | 1015.1 |
| 20260508050707 | 47 | 163 | 0.0 | 0.0 | 0.00 | 0.00 | 0.00 | 92 | 1015.1 |
| 20260508050205 | 47 | 163 | 0.0 | 0.0 | 0.00 | 0.00 | 0.00 | 91 | 1015.0 |
| 20260508045700 | 47 | 163 | 0.0 | 0.0 | 0.00 | 0.00 | 0.00 | 91 | 1015.1 |
| 20260508045159 | 47 | 163 | 0.0 | 0.0 | 0.00 | 0.00 | 0.00 | 91 | 1015.2 |
| 20260508044656 | 48 | 163 | 0.0 | 0.0 | 0.00 | 0.00 | 0.00 | 90 | 1015.3 |
| 20260508044152 | 48 | 163 | 0.0 | 0.0 | 0.00 | 0.00 | 0.00 | 90 | 1015.3 |
| 20260508043648 | 48 | 163 | 0.0 | 0.0 | 0.00 | 0.00 | 0.00 | 89 | 1015.3 |
| 20260508043146 | 48 | 163 | 0.0 | 0.0 | 0.00 | 0.00 | 0.00 | 88 | 1015.4 |
| 20260508042642 | 48 | 163 | 0.0 | 0.0 | 0.00 | 0.00 | 0.00 | 88 | 1015.5 |
| 20260508042140 | 49 | 163 | 0.0 | 0.0 | 0.00 | 0.00 | 0.00 | 88 | 1015.6 |
| 20260508041636 | 49 | 178 | 0.0 | 0.0 | 0.00 | 0.00 | 0.00 | 88 | 1015.3 |
| 20260508041133 | 49 | 178 | 0.0 | 0.0 | 0.00 | 0.00 | 0.00 | 87 | 1015.4 |
| 20260508040629 | 49 | 178 | 0.0 | 0.0 | 0.00 | 0.00 | 0.00 | 86 | 1015.7 |
| 20260508040127 | 50 | 178 | 0.0 | 0.0 | 0.00 | 0.00 | 0.00 | 86 | 1015.4 |
| 20260508035624 | 50 | 178 | 0.0 | 0.0 | 0.00 | 0.00 | 0.00 | 86 | 1015.5 |
| 20260508035122 | 50 | 178 | 0.0 | 0.0 | 0.00 | 0.00 | 0.00 | 86 | 1015.7 |
| 20260508034619 | 50 | 178 | 0.0 | 0.0 | 0.00 | 0.00 | 0.00 | 85 | 1015.7 |
| 20260508034115 | 50 | 178 | 0.0 | 0.0 | 0.00 | 0.00 | 0.00 | 85 | 1015.7 |
| 20260508033613 | 50 | 178 | 0.0 | 0.0 | 0.00 | 0.00 | 0.00 | 84 | 1015.6 |
| 20260508033111 | 50 | 178 | 0.0 | 0.0 | 0.00 | 0.00 | 0.00 | 83 | 1015.6 |
| 20260508032607 | 51 | 178 | 0.0 | 0.0 | 0.00 | 0.00 | 0.00 | 82 | 1015.7 |
| 20260508032105 | 51 | 178 | 0.0 | 0.0 | 0.00 | 0.00 | 0.00 | 81 | 1015.7 |
| 20260508031602 | 51 | 178 | 0.0 | 0.0 | 0.00 | 0.00 | 0.00 | 81 | 1015.8 |
| 20260508031057 | 52 | 178 | 0.0 | 0.0 | 0.00 | 0.00 | 0.00 | 80 | 1015.8 |
| 20260508030554 | 52 | 178 | 0.0 | 0.0 | 0.00 | 0.00 | 0.00 | 80 | 1015.9 |
| 20260508030052 | 52 | 179 | 0.0 | 0.0 | 0.00 | 0.00 | 0.00 | 80 | 1015.7 |
| 20260508025547 | 51 | 171 | 0.0 | 0.0 | 0.00 | 0.00 | 0.00 | 81 | 1015.6 |
| 20260508025045 | 51 | 171 | 0.0 | 0.0 | 0.00 | 0.00 | 0.00 | 81 | 1015.6 |
| 20260508024541 | 51 | 171 | 0.0 | 0.0 | 0.00 | 0.00 | 0.00 | 81 | 1015.5 |
| 20260508024039 | 51 | 171 | 0.0 | 0.0 | 0.00 | 0.00 | 0.00 | 81 | 1015.5 |
| 20260508023535 | 52 | 171 | 0.0 | 0.0 | 0.00 | 0.00 | 0.00 | 80 | 1015.4 |
| 20260508023032 | 52 | 171 | 0.0 | 0.0 | 0.00 | 0.00 | 0.00 | 79 | 1015.4 |
| 20260508022528 | 53 | 171 | 0.0 | 0.0 | 0.00 | 0.00 | 0.00 | 78 | 1015.1 |
| 20260508022025 | 53 | 171 | 0.0 | 0.0 | 0.00 | 0.00 | 0.00 | 77 | 1015.0 |
| 20260508021521 | 53 | 171 | 0.0 | 0.0 | 0.00 | 0.00 | 0.00 | 76 | 1014.8 |
| 20260508021017 | 53 | 171 | 0.0 | 0.0 | 0.00 | 0.00 | 0.00 | 76 | 1014.8 |
| 20260508020515 | 54 | 171 | 0.0 | 0.0 | 0.00 | 0.00 | 0.00 | 75 | 1014.9 |
| 20260508020012 | 54 | 171 | 0.0 | 0.0 | 0.00 | 0.00 | 0.00 | 73 | 1014.8 |
| 20260508015509 | 54 | 171 | 0.0 | 0.0 | 0.00 | 0.00 | 0.00 | 72 | 1014.7 |
| 20260508015006 | 55 | 171 | 0.0 | 0.0 | 0.00 | 0.00 | 0.00 | 71 | 1014.6 |
| 20260508014502 | 55 | 171 | 0.0 | 0.0 | 0.00 | 0.00 | 0.00 | 69 | 1014.7 |
| 20260508013958 | 56 | 171 | 0.0 | 0.0 | 0.00 | 0.00 | 0.00 | 67 | 1014.6 |
| 20260508013454 | 57 | 171 | 0.0 | 0.0 | 0.00 | 0.00 | 0.00 | 66 | 1014.6 |
| 20260508012952 | 57 | 171 | 0.0 | 0.0 | 0.00 | 0.00 | 0.00 | 65 | 1014.4 |
| 20260508012449 | 58 | 171 | 0.0 | 0.0 | 0.00 | 0.00 | 0.00 | 63 | 1014.4 |
| 20260508011946 | 59 | 173 | 0.0 | 0.0 | 0.00 | 0.00 | 0.00 | 62 | 1014.6 |
| 20260508011444 | 60 | 173 | 0.0 | 0.0 | 0.00 | 0.00 | 0.00 | 60 | 1014.4 |
| 20260508010941 | 60 | 169 | 0.0 | 0.0 | 0.00 | 0.00 | 0.00 | 59 | 1014.2 |
| 20260508010438 | 61 | 173 | 1.0 | 1.0 | 0.00 | 0.00 | 0.00 | 58 | 1014.4 |
| 20260508005935 | 61 | 179 | 0.0 | 1.0 | 0.00 | 0.00 | 0.00 | 57 | 1014.2 |
| 20260508005432 | 61 | 177 | 0.0 | 0.0 | 0.00 | 0.00 | 0.00 | 56 | 1014.3 |
| 20260508004928 | 62 | 167 | 0.0 | 1.0 | 0.00 | 0.00 | 0.00 | 56 | 1014.1 |
| 20260508004425 | 62 | 167 | 0.0 | 1.0 | 0.00 | 0.00 | 0.00 | 56 | 1014.2 |
| 20260508003921 | 62 | 181 | 0.0 | 2.0 | 0.00 | 0.00 | 0.00 | 55 | 1014.1 |
| 20260508003418 | 62 | 175 | 1.0 | 3.0 | 0.00 | 0.00 | 0.00 | 54 | 1014.4 |
| 20260508002916 | 63 | 199 | 2.0 | 5.0 | 0.00 | 0.00 | 0.00 | 54 | 1014.3 |
| 20260508002412 | 63 | 169 | 1.0 | 5.0 | 0.00 | 0.00 | 0.00 | 53 | 1014.3 |
| 20260508001908 | 63 | 159 | 1.0 | 3.0 | 0.00 | 0.00 | 0.00 | 54 | 1014.2 |
| 20260508001404 | 63 | 145 | 2.0 | 3.0 | 0.00 | 0.00 | 0.00 | 53 | 1014.3 |
| 20260508000901 | 64 | 186 | 2.0 | 5.0 | 0.00 | 0.00 | 0.00 | 52 | 1014.4 |
| 20260508000357 | 64 | 161 | 3.0 | 5.0 | 0.00 | 0.00 | 0.00 | 51 | 1014.2 |
| 20260507235854 | 64 | 131 | 3.0 | 5.0 | 0.00 | 0.00 | 0.00 | 51 | 1014.3 |
| 20260507235352 | 65 | 187 | 1.0 | 2.0 | 0.00 | 0.00 | 0.00 | 50 | 1014.6 |
| 20260507234848 | 65 | 178 | 1.0 | 3.0 | 0.00 | 0.00 | 0.00 | 49 | 1014.3 |
| 20260507234345 | 65 | 172 | 0.0 | 2.0 | 0.00 | 0.00 | 0.00 | 52 | 1014.6 |
| 20260507233841 | 65 | 185 | 2.0 | 5.0 | 0.00 | 0.00 | 0.00 | 51 | 1014.3 |
| 20260507233339 | 65 | 172 | 2.0 | 6.0 | 0.00 | 0.00 | 0.00 | 51 | 1014.6 |
| 20260507232837 | 66 | 194 | 3.0 | 6.0 | 0.00 | 0.00 | 0.00 | 50 | 1014.6 |
| 20260507232333 | 66 | 188 | 3.0 | 7.0 | 0.00 | 0.00 | 0.00 | 50 | 1014.3 |
| 20260507231831 | 66 | 220 | 5.0 | 7.0 | 0.00 | 0.00 | 0.00 | 49 | 1014.3 |
| 20260507231327 | 67 | 211 | 2.0 | 5.0 | 0.00 | 0.00 | 0.00 | 48 | 1014.4 |
| 20260507230823 | 67 | 182 | 1.0 | 7.0 | 0.00 | 0.00 | 0.00 | 50 | 1014.3 |
| 20260507230321 | 66 | 190 | 2.0 | 5.0 | 0.00 | 0.00 | 0.00 | 48 | 1014.4 |
| 20260507225821 | 67 | 179 | 5.0 | 7.0 | 0.00 | 0.00 | 0.00 | 49 | 1014.4 |
| 20260507225317 | 67 | 223 | 0.0 | 5.0 | 0.00 | 0.00 | 0.00 | 47 | 1014.7 |
| 20260507224813 | 66 | 179 | 4.0 | 6.0 | 0.00 | 0.00 | 0.00 | 49 | 1014.8 |
| 20260507224310 | 67 | 167 | 1.0 | 5.0 | 0.00 | 0.00 | 0.00 | 48 | 1014.6 |
| 20260507223806 | 67 | 167 | 6.0 | 8.0 | 0.00 | 0.00 | 0.00 | 48 | 1014.9 |
| 20260507223302 | 67 | 183 | 2.0 | 7.0 | 0.00 | 0.00 | 0.00 | 48 | 1015.0 |
| 20260507222800 | 67 | 190 | 3.0 | 6.0 | 0.00 | 0.00 | 0.00 | 50 | 1014.9 |
| 20260507222256 | 67 | 192 | 5.0 | 10.0 | 0.00 | 0.00 | 0.00 | 49 | 1015.2 |
| 20260507221753 | 66 | 277 | 1.0 | 3.0 | 0.00 | 0.00 | 0.00 | 50 | 1015.1 |
| 20260507221249 | 66 | 196 | 2.0 | 6.0 | 0.00 | 0.00 | 0.00 | 49 | 1015.2 |
| 20260507220746 | 67 | 172 | 3.0 | 7.0 | 0.00 | 0.00 | 0.00 | 50 | 1015.3 |
| 20260507220244 | 65 | 329 | 2.0 | 3.0 | 0.00 | 0.00 | 0.00 | 48 | 1015.2 |
| 20260507215740 | 66 | 162 | 2.0 | 11.0 | 0.00 | 0.00 | 0.00 | 49 | 1015.1 |
| 20260507215233 | 67 | 199 | 4.0 | 6.0 | 0.00 | 0.00 | 0.00 | 46 | 1015.1 |
| 20260507214729 | 67 | 252 | 5.0 | 9.0 | 0.00 | 0.00 | 0.00 | 48 | 1015.0 |
| 20260507214227 | 66 | 186 | 2.0 | 5.0 | 0.00 | 0.00 | 0.00 | 51 | 1015.2 |
| 20260507213722 | 66 | 175 | 1.0 | 5.0 | 0.00 | 0.00 | 0.00 | 49 | 1015.4 |
| 20260507213219 | 67 | 204 | 1.0 | 8.0 | 0.00 | 0.00 | 0.00 | 47 | 1015.3 |
| 20260507212715 | 66 | 196 | 4.0 | 7.0 | 0.00 | 0.00 | 0.00 | 46 | 1015.4 |
| 20260507212212 | 67 | 205 | 2.0 | 5.0 | 0.00 | 0.00 | 0.00 | 48 | 1015.3 |
| 20260507211709 | 65 | 191 | 1.0 | 6.0 | 0.00 | 0.00 | 0.00 | 48 | 1015.4 |
| 20260507211204 | 67 | 183 | 3.0 | 6.0 | 0.00 | 0.00 | 0.00 | 48 | 1015.4 |
| 20260507210702 | 67 | 186 | 1.0 | 3.0 | 0.00 | 0.00 | 0.00 | 51 | 1015.5 |
| 20260507210159 | 67 | 95 | 4.0 | 8.0 | 0.00 | 0.00 | 0.00 | 48 | 1015.4 |
| 20260507205655 | 67 | 190 | 0.0 | 5.0 | 0.00 | 0.00 | 0.00 | 49 | 1015.7 |
| 20260507205152 | 67 | 282 | 1.0 | 3.0 | 0.00 | 0.00 | 0.00 | 46 | 1015.5 |
| 20260507204648 | 67 | 276 | 3.0 | 7.0 | 0.00 | 0.00 | 0.00 | 46 | 1015.8 |
| 20260507204146 | 67 | 140 | 1.0 | 3.0 | 0.00 | 0.00 | 0.00 | 51 | 1015.9 |
| 20260507203644 | 68 | 193 | 6.0 | 10.0 | 0.00 | 0.00 | 0.00 | 45 | 1015.8 |
| 20260507203141 | 67 | 159 | 1.0 | 3.0 | 0.00 | 0.00 | 0.00 | 49 | 1016.0 |
| 20260507202636 | 67 | 44 | 1.0 | 3.0 | 0.00 | 0.00 | 0.00 | 46 | 1016.0 |
| 20260507202133 | 66 | 150 | 5.0 | 10.0 | 0.00 | 0.00 | 0.00 | 46 | 1016.2 |
| 20260507201628 | 66 | 152 | 3.0 | 6.0 | 0.00 | 0.00 | 0.00 | 46 | 1016.1 |
| 20260507201125 | 67 | 216 | 3.0 | 8.0 | 0.00 | 0.00 | 0.00 | 46 | 1016.5 |
| 20260507200621 | 67 | 172 | 5.0 | 7.0 | 0.00 | 0.00 | 0.00 | 46 | 1016.4 |
| 20260507200117 | 67 | 246 | 2.0 | 7.0 | 0.00 | 0.00 | 0.00 | 42 | 1016.6 |
| 20260507195615 | 67 | 203 | 2.0 | 9.0 | 0.00 | 0.00 | 0.00 | 47 | 1016.6 |
| 20260507195112 | 66 | 190 | 2.0 | 6.0 | 0.00 | 0.00 | 0.00 | 45 | 1016.4 |
| 20260507194608 | 65 | 171 | 4.0 | 7.0 | 0.00 | 0.00 | 0.00 | 45 | 1016.5 |
| 20260507194103 | 66 | 170 | 4.0 | 5.0 | 0.00 | 0.00 | 0.00 | 46 | 1016.4 |
| 20260507193601 | 66 | 164 | 5.0 | 7.0 | 0.00 | 0.00 | 0.00 | 46 | 1016.8 |
| 20260507193057 | 68 | 255 | 2.0 | 5.0 | 0.00 | 0.00 | 0.00 | 41 | 1016.6 |
| 20260507192554 | 67 | 165 | 4.0 | 6.0 | 0.00 | 0.00 | 0.00 | 47 | 1016.8 |
| 20260507192051 | 66 | 191 | 1.0 | 3.0 | 0.00 | 0.00 | 0.00 | 47 | 1016.8 |
| 20260507191546 | 67 | 178 | 4.0 | 6.0 | 0.00 | 0.00 | 0.00 | 42 | 1016.9 |
| 20260507191044 | 65 | 189 | 2.0 | 10.0 | 0.00 | 0.00 | 0.00 | 45 | 1017.0 |
| 20260507190541 | 66 | 189 | 3.0 | 5.0 | 0.00 | 0.00 | 0.00 | 44 | 1016.8 |
| 20260507190040 | 66 | 169 | 2.0 | 9.0 | 0.00 | 0.00 | 0.00 | 46 | 1016.9 |
| 20260507185538 | 65 | 208 | 1.0 | 8.0 | 0.00 | 0.00 | 0.00 | 48 | 1017.0 |
| 20260507185034 | 65 | 182 | 1.0 | 7.0 | 0.00 | 0.00 | 0.00 | 48 | 1016.7 |
| 20260507184532 | 65 | 201 | 4.0 | 7.0 | 0.00 | 0.00 | 0.00 | 47 | 1016.7 |
| 20260507184030 | 65 | 192 | 2.0 | 3.0 | 0.00 | 0.00 | 0.00 | 49 | 1017.0 |
| 20260507183525 | 65 | 200 | 4.0 | 5.0 | 0.00 | 0.00 | 0.00 | 45 | 1017.3 |
| 20260507183023 | 65 | 177 | 1.0 | 2.0 | 0.00 | 0.00 | 0.00 | 42 | 1017.0 |
| 20260507182519 | 64 | 169 | 4.0 | 7.0 | 0.00 | 0.00 | 0.00 | 43 | 1017.1 |
| 20260507182015 | 65 | 230 | 1.0 | 8.0 | 0.00 | 0.00 | 0.00 | 45 | 1017.4 |
| 20260507181512 | 66 | 121 | 0.0 | 2.0 | 0.00 | 0.00 | 0.00 | 45 | 1017.1 |
| 20260507181008 | 65 | 159 | 1.0 | 3.0 | 0.00 | 0.00 | 0.00 | 44 | 1017.4 |
| 20260507180505 | 64 | 189 | 2.0 | 7.0 | 0.00 | 0.00 | 0.00 | 46 | 1017.5 |
| 20260507180001 | 64 | 169 | 2.0 | 15.0 | 0.00 | 0.00 | 0.00 | 43 | 1017.5 |
| 20260507175458 | 64 | 196 | 1.0 | 2.0 | 0.00 | 0.00 | 0.00 | 50 | 1017.5 |
| 20260507174955 | 63 | 177 | 1.0 | 3.0 | 0.00 | 0.00 | 0.00 | 50 | 1017.7 |
| 20260507174453 | 64 | 159 | 5.0 | 7.0 | 0.00 | 0.00 | 0.00 | 46 | 1017.8 |
| 20260507173950 | 63 | 174 | 1.0 | 3.0 | 0.00 | 0.00 | 0.00 | 42 | 1017.8 |
| 20260507173447 | 63 | 171 | 2.0 | 3.0 | 0.00 | 0.00 | 0.00 | 44 | 1018.1 |
| 20260507172944 | 63 | 261 | 5.0 | 6.0 | 0.00 | 0.00 | 0.00 | 42 | 1018.2 |
| 20260507172440 | 62 | 170 | 3.0 | 3.0 | 0.00 | 0.00 | 0.00 | 47 | 1018.3 |
| 20260507171937 | 63 | 196 | 5.0 | 10.0 | 0.00 | 0.00 | 0.00 | 44 | 1018.4 |
| 20260507171432 | 62 | 179 | 1.0 | 5.0 | 0.00 | 0.00 | 0.00 | 48 | 1018.7 |
| 20260507170930 | 62 | 159 | 1.0 | 3.0 | 0.00 | 0.00 | 0.00 | 46 | 1018.6 |
| 20260507170426 | 62 | 198 | 2.0 | 5.0 | 0.00 | 0.00 | 0.00 | 45 | 1018.5 |
| 20260507165923 | 62 | 179 | 2.0 | 7.0 | 0.00 | 0.00 | 0.00 | 44 | 1018.7 |
| 20260507165419 | 62 | 188 | 3.0 | 5.0 | 0.00 | 0.00 | 0.00 | 44 | 1018.9 |
| 20260507164915 | 61 | 141 | 3.0 | 6.0 | 0.00 | 0.00 | 0.00 | 48 | 1018.8 |
| 20260507164412 | 61 | 182 | 5.0 | 7.0 | 0.00 | 0.00 | 0.00 | 48 | 1018.8 |
| 20260507163909 | 62 | 182 | 1.0 | 2.0 | 0.00 | 0.00 | 0.00 | 49 | 1018.8 |
| 20260507163407 | 62 | 159 | 5.0 | 8.0 | 0.00 | 0.00 | 0.00 | 47 | 1018.9 |
| 20260507162903 | 61 | 186 | 1.0 | 5.0 | 0.00 | 0.00 | 0.00 | 50 | 1018.9 |
| 20260507162358 | 62 | 194 | 3.0 | 5.0 | 0.00 | 0.00 | 0.00 | 51 | 1018.8 |
| 20260507161856 | 61 | 163 | 0.0 | 6.0 | 0.00 | 0.00 | 0.00 | 49 | 1018.6 |
| 20260507161352 | 61 | 214 | 1.0 | 2.0 | 0.00 | 0.00 | 0.00 | 50 | 1018.8 |
| 20260507160849 | 61 | 177 | 1.0 | 3.0 | 0.00 | 0.00 | 0.00 | 49 | 1018.8 |
| 20260507160344 | 61 | 154 | 3.0 | 3.0 | 0.00 | 0.00 | 0.00 | 46 | 1019.0 |
| 20260507155841 | 62 | 150 | 2.0 | 6.0 | 0.00 | 0.00 | 0.00 | 45 | 1019.0 |
| 20260507155336 | 61 | 85 | 0.0 | 1.0 | 0.00 | 0.00 | 0.00 | 50 | 1019.1 |
| 20260507154833 | 61 | 177 | 1.0 | 3.0 | 0.00 | 0.00 | 0.00 | 51 | 1019.1 |
| 20260507154331 | 59 | 141 | 1.0 | 5.0 | 0.00 | 0.00 | 0.00 | 50 | 1018.9 |
| 20260507153828 | 60 | 270 | 3.0 | 6.0 | 0.00 | 0.00 | 0.00 | 49 | 1019.4 |
| 20260507153324 | 59 | 208 | 1.0 | 2.0 | 0.00 | 0.00 | 0.00 | 52 | 1019.2 |
| 20260507152820 | 59 | 218 | 2.0 | 5.0 | 0.00 | 0.00 | 0.00 | 48 | 1019.3 |
| 20260507152316 | 60 | 242 | 1.0 | 3.0 | 0.00 | 0.00 | 0.00 | 51 | 1019.4 |
| 20260507151812 | 59 | 180 | 1.0 | 6.0 | 0.00 | 0.00 | 0.00 | 48 | 1019.1 |
| 20260507151309 | 58 | 214 | 0.0 | 2.0 | 0.00 | 0.00 | 0.00 | 52 | 1019.0 |
| 20260507150807 | 58 | 205 | 4.0 | 7.0 | 0.00 | 0.00 | 0.00 | 52 | 1019.1 |
| 20260507150303 | 58 | 194 | 2.0 | 5.0 | 0.00 | 0.00 | 0.00 | 50 | 1019.4 |
| 20260507145759 | 58 | 201 | 0.0 | 5.0 | 0.00 | 0.00 | 0.00 | 51 | 1018.9 |
| 20260507145256 | 57 | 183 | 3.0 | 6.0 | 0.00 | 0.00 | 0.00 | 51 | 1019.3 |
| 20260507144753 | 58 | 194 | 0.0 | 3.0 | 0.00 | 0.00 | 0.00 | 55 | 1019.0 |
| 20260507144250 | 57 | 194 | 3.0 | 5.0 | 0.00 | 0.00 | 0.00 | 53 | 1019.2 |
| 20260507143747 | 57 | 182 | 0.0 | 6.0 | 0.00 | 0.00 | 0.00 | 58 | 1019.3 |
| 20260507143244 | 57 | 190 | 3.0 | 5.0 | 0.00 | 0.00 | 0.00 | 55 | 1019.3 |
| 20260507142740 | 57 | 172 | 1.0 | 2.0 | 0.00 | 0.00 | 0.00 | 54 | 1019.5 |
| 20260507142237 | 56 | 165 | 3.0 | 5.0 | 0.00 | 0.00 | 0.00 | 53 | 1019.2 |
| 20260507141733 | 56 | 187 | 1.0 | 2.0 | 0.00 | 0.00 | 0.00 | 59 | 1019.5 |
| 20260507141230 | 56 | 175 | 3.0 | 5.0 | 0.00 | 0.00 | 0.00 | 57 | 1019.5 |
| 20260507140726 | 55 | 121 | 1.0 | 3.0 | 0.00 | 0.00 | 0.00 | 57 | 1019.5 |
| 20260507140224 | 55 | 179 | 2.0 | 6.0 | 0.00 | 0.00 | 0.00 | 57 | 1019.4 |
| 20260507135721 | 54 | 127 | 1.0 | 2.0 | 0.00 | 0.00 | 0.00 | 66 | 1019.4 |
| 20260507135218 | 54 | 170 | 2.0 | 2.0 | 0.00 | 0.00 | 0.00 | 67 | 1019.6 |
| 20260507134714 | 53 | 177 | 0.0 | 6.0 | 0.00 | 0.00 | 0.00 | 67 | 1019.4 |
| 20260507134210 | 53 | 181 | 2.0 | 3.0 | 0.00 | 0.00 | 0.00 | 66 | 1019.5 |
| 20260507133706 | 53 | 169 | 1.0 | 2.0 | 0.00 | 0.00 | 0.00 | 67 | 1019.5 |
| 20260507133204 | 52 | 165 | 0.0 | 1.0 | 0.00 | 0.00 | 0.00 | 68 | 1019.4 |
| 20260507132701 | 52 | 163 | 1.0 | 3.0 | 0.00 | 0.00 | 0.00 | 66 | 1019.5 |
| 20260507132157 | 51 | 172 | 2.0 | 2.0 | 0.00 | 0.00 | 0.00 | 67 | 1019.4 |
| 20260507131654 | 51 | 159 | 0.0 | 0.0 | 0.00 | 0.00 | 0.00 | 71 | 1019.3 |
| 20260507131152 | 50 | 165 | 1.0 | 2.0 | 0.00 | 0.00 | 0.00 | 70 | 1019.5 |
| 20260507130648 | 50 | 165 | 0.0 | 1.0 | 0.00 | 0.00 | 0.00 | 71 | 1019.5 |